Hartford, CT

12:56 AM EDT on June 27, 2017 (GMT -0400)
Hartford-brainard

Weather History for KHFD - December, 2012

Change the Weather History Date:

Sunday, December 16, 2012

  Actual Average Record
Temperature  
Mean Temperature 35 °F -  
Max Temperature 37 °F 40 °F 60 °F (1971)
Min Temperature 33 °F 23 °F 2 °F (1930)
Degree Days  
Heating Degree Days 30    
Moisture  
Dew Point 29 °F    
Average Humidity 79    
Maximum Humidity 93    
Minimum Humidity 62    
Precipitation  
Precipitation 0.03 in - - ()
Sea Level Pressure  
Sea Level Pressure 30.13 in    
Wind  
Wind Speed 5 mph (NNE)    
Max Wind Speed 12 mph    
Max Gust Speed -    
Visibility 6 miles    
Events Rain    
Averages and records for this station are not official NWS values.
T = Trace of Precipitation, MM = Missing Value Source: NWS Daily Summary

Daily Weather History Graph

Daily Weather History Graph

Search for Another Location

Airport or City:

Trip Planner

Search our weather history database for the weather conditions in past years. The results will help you decide how hot, cold, wet, or windy it might be!

Date:

Astronomy

Dec. 16, 2012 Rise Set
Actual Time 7:11 AM EST 4:21 PM EST
Civil Twilight 6:40 AM EST 4:52 PM EST
Nautical Twilight 6:05 AM EST 5:27 PM EST
Astronomical Twilight 5:31 AM EST 6:01 PM EST
Moon 9:41 AM EST (12/16) 8:35 PM EST (12/16)
Length of Visible Light 10h 12m
Length of Day
9h 09m
Waxing Crescent, 16% of the Moon is Illuminated
Dec 16
Waxing Crescent
Dec 20
First Quarter
Dec 28
Full
Jan 4
Last Quarter
Jan 11
New

Hourly Weather History & Observations

Time (EST) Temp. Windchill Dew Point Humidity Pressure Visibility Wind Dir Wind Speed Gust Speed Precip Events Conditions
12:53 AM 35.1 °F 32.2 °F 26.1 °F 70% 30.27 in 10.0 mi East 3.5 mph - N/A   Clear
1:53 AM 36.0 °F - 26.1 °F 67% 30.27 in 10.0 mi Calm Calm - N/A   Overcast
2:08 AM 35.6 °F - 26.6 °F 70% 30.27 in 10.0 mi Calm Calm - N/A   Overcast
2:53 AM 36.0 °F - 26.1 °F 67% 30.28 in 10.0 mi Calm Calm - N/A   Overcast
3:53 AM 35.1 °F 31.0 °F 25.0 °F 67% 30.25 in 10.0 mi ENE 4.6 mph - N/A   Overcast
4:53 AM 36.0 °F 32.1 °F 25.0 °F 64% 30.24 in 10.0 mi ENE 4.6 mph - N/A   Overcast
5:53 AM 36.0 °F 32.1 °F 25.0 °F 64% 30.24 in 10.0 mi ENE 4.6 mph - N/A   Overcast
6:53 AM 36.0 °F 33.3 °F 24.1 °F 62% 30.24 in 10.0 mi ENE 3.5 mph - N/A   Overcast
7:53 AM 36.0 °F 31.1 °F 25.0 °F 64% 30.23 in 10.0 mi ENE 5.8 mph - N/A   Overcast
8:53 AM 36.0 °F 31.1 °F 25.0 °F 64% 30.23 in 10.0 mi ENE 5.8 mph - N/A   Overcast
9:53 AM 36.0 °F 31.1 °F 25.0 °F 64% 30.22 in 10.0 mi ENE 5.8 mph - N/A   Overcast
10:53 AM 37.0 °F 33.3 °F 25.0 °F 62% 30.21 in 10.0 mi NE 4.6 mph - N/A   Overcast
11:53 AM 37.0 °F 31.6 °F 26.1 °F 65% 30.18 in 10.0 mi ENE 6.9 mph - N/A   Overcast
12:53 PM 37.0 °F 33.3 °F 28.9 °F 73% 30.16 in 10.0 mi NE 4.6 mph - 0.00 in   Overcast
1:53 PM 37.0 °F 33.3 °F 28.9 °F 73% 30.14 in 10.0 mi NE 4.6 mph - 0.00 in   Overcast
2:53 PM 37.0 °F 31.6 °F 30.0 °F 76% 30.12 in 10.0 mi NE 6.9 mph - N/A   Overcast
3:53 PM 36.0 °F 31.1 °F 30.9 °F 82% 30.11 in 9.0 mi NE 5.8 mph - 0.00 in   Overcast
4:04 PM 35.6 °F 31.7 °F 30.2 °F 81% 30.10 in 2.5 mi NE 4.6 mph - N/A   Haze
4:11 PM 35.6 °F 29.9 °F 30.2 °F 81% 30.11 in 1.5 mi ENE 6.9 mph - N/A   Haze
5:00 PM 35.6 °F 29.9 °F 32.0 °F 87% 30.10 in 10.0 mi NNE 6.9 mph - N/A   Overcast
5:53 PM 35.1 °F 27.9 °F 32.0 °F 89% 30.09 in 4.0 mi North 9.2 mph - 0.00 in Rain Light Rain
6:53 PM 35.1 °F 27.9 °F 32.0 °F 89% 30.07 in 5.0 mi North 9.2 mph - 0.01 in Rain Light Rain
7:46 PM 33.8 °F 26.4 °F 30.2 °F 87% 30.06 in 3.0 mi North 9.2 mph - 0.01 in Rain Light Rain
7:53 PM 34.0 °F 27.2 °F 30.9 °F 89% 30.06 in 2.5 mi North 8.1 mph - 0.01 in   Overcast
8:00 PM 33.8 °F 26.4 °F 30.2 °F 87% 30.06 in 3.0 mi North 9.2 mph - N/A   Overcast
8:04 PM 33.8 °F 25.8 °F 30.2 °F 87% 30.05 in 2.5 mi North 10.4 mph - N/A   Overcast
8:15 PM 33.8 °F 27.0 °F 30.2 °F 87% 30.05 in 3.0 mi North 8.1 mph - 0.00 in Rain Light Rain
8:19 PM 33.8 °F 26.4 °F 30.2 °F 87% 30.05 in 2.5 mi North 9.2 mph - 0.00 in Rain Light Rain
8:27 PM 33.8 °F 26.4 °F 30.2 °F 87% 30.05 in 2.5 mi North 9.2 mph - 0.00 in Rain Light Rain
8:53 PM 34.0 °F 26.6 °F 30.9 °F 89% 30.04 in 2.5 mi North 9.2 mph - 0.00 in   Overcast
9:09 PM 33.8 °F 26.4 °F 30.2 °F 87% 30.05 in 1.8 mi North 9.2 mph - N/A   Overcast
9:23 PM 33.8 °F 27.7 °F 30.2 °F 87% 30.03 in 2.5 mi North 6.9 mph - 0.00 in   Overcast
9:40 PM 33.8 °F 26.4 °F 32.0 °F 93% 30.03 in 1.5 mi North 9.2 mph - 0.00 in   Overcast
9:53 PM 34.0 °F 28.0 °F 32.0 °F 92% 30.04 in 1.8 mi North 6.9 mph - 0.01 in Rain Light Rain
10:04 PM 33.8 °F 26.4 °F 32.0 °F 93% 30.04 in 2.0 mi North 9.2 mph - 0.00 in Rain Light Rain
10:53 PM 35.1 °F 27.9 °F 32.0 °F 89% 30.04 in 3.0 mi NNE 9.2 mph - 0.00 in   Overcast
11:38 PM 35.6 °F 28.6 °F 32.0 °F 87% 30.02 in 2.5 mi North 9.2 mph - N/A   Overcast
11:53 PM 35.1 °F 26.9 °F 32.0 °F 89% 30.02 in 3.0 mi North 11.5 mph - N/A   Overcast